Total_Precipitation_Accumulation
0.00 0.00 0.00 0.01 0.03 0.03 0.06 0.06 0.01 0.00 0.00 0.00 0.00 0.00 0.00 0.00 0.00 0.00 0.00 0.00 0.00 0.00 0.01 0.02 0.02 0.01 0.00 0.01 0.03 0.04 0.03 0.02 0.03 0.06 0.09 0.11 0.13 0.10 0.06 0.04 0.02 0.01 0.01 0.01 0.01 0.01 0.02 0.02 0.02
0.00 0.00 0.00 0.00 0.01 0.02 0.06 0.06 0.02 0.02 0.01 0.00 0.00 0.00 0.00 0.00 0.00 0.00 0.00 0.00 0.00 0.00 0.00 0.01 0.01 0.01 0.00 0.01 0.02 0.04 0.04 0.03 0.04 0.09 0.10 0.09 0.10 0.09 0.07 0.06 0.04 0.04 0.02 0.01 0.01 0.01 0.01 0.01 0.00
0.00 0.00 0.00 0.00 0.00 0.02 0.05 0.07 0.03 0.02 0.02 0.01 0.00 0.00 0.00 0.00 0.00 0.00 0.00 0.00 0.00 0.00 0.00 0.00 0.01 0.01 0.01 0.01 0.02 0.04 0.06 0.05 0.06 0.09 0.10 0.07 0.08 0.09 0.08 0.09 0.10 0.07 0.04 0.02 0.01 0.01 0.01 0.01 0.01
0.00 0.00 0.00 0.00 0.00 0.01 0.03 0.02 0.01 0.01 0.00 0.01 0.00 0.00 0.00 0.00 0.00 0.00 0.00 0.00 0.00 0.00 0.00 0.00 0.01 0.01 0.00 0.01 0.01 0.03 0.05 0.06 0.07 0.09 0.09 0.09 0.11 0.10 0.06 0.09 0.10 0.07 0.04 0.02 0.04 0.03 0.03 0.02 0.01
0.00 0.00 0.00 0.00 0.00 0.01 0.02 0.01 0.01 0.01 0.01 0.00 0.00 0.00 0.00 0.00 0.00 0.00 0.00 0.00 0.00 0.00 0.00 0.01 0.01 0.01 0.00 0.00 0.01 0.01 0.02 0.03 0.04 0.08 0.10 0.09 0.09 0.10 0.08 0.06 0.05 0.04 0.02 0.02 0.07 0.10 0.09 0.06 0.04
0.00 0.00 0.00 0.00 0.01 0.01 0.02 0.02 0.02 0.04 0.01 0.01 0.01 0.00 0.00 0.00 0.00 0.00 0.00 0.00 0.00 0.00 0.01 0.01 0.01 0.01 0.01 0.00 0.00 0.01 0.01 0.01 0.02 0.04 0.06 0.04 0.02 0.02 0.02 0.03 0.03 0.01 0.02 0.05 0.07 0.08 0.11 0.13 0.10
0.00 0.00 0.00 0.00 0.00 0.00 0.02 0.02 0.03 0.03 0.01 0.00 0.00 0.00 0.00 0.00 0.00 0.00 0.00 0.00 0.00 0.00 0.00 0.01 0.01 0.01 0.01 0.01 0.01 0.01 0.01 0.01 0.01 0.01 0.01 0.01 0.00 0.00 0.01 0.01 0.01 0.00 0.01 0.03 0.04 0.04 0.05 0.09 0.10
0.00 0.00 0.00 0.00 0.00 0.00 0.01 0.02 0.03 0.02 0.00 0.00 0.00 0.00 0.00 0.00 0.00 0.00 0.00 0.00 0.00 0.00 0.00 0.00 0.00 0.01 0.01 0.01 0.01 0.01 0.01 0.01 0.00 0.00 0.00 0.00 0.00 0.00 0.00 0.01 0.02 0.01 0.01 0.01 0.01 0.02 0.03 0.07 0.08
0.00 0.00 0.00 0.00 0.00 0.00 0.01 0.03 0.03 0.02 0.02 0.01 0.00 0.00 0.00 0.00 0.00 0.00 0.01 0.01 0.01 0.01 0.01 0.00 0.00 0.01 0.01 0.01 0.00 0.00 0.00 0.00 0.00 0.00 0.00 0.00 0.00 0.01 0.02 0.03 0.06 0.05 0.04 0.02 0.02 0.02 0.03 0.05 0.06
0.00 0.00 0.00 0.00 0.00 0.00 0.01 0.03 0.03 0.02 0.02 0.01 0.00 0.00 0.00 0.00 0.00 0.00 0.00 0.00 0.01 0.01 0.00 0.00 0.00 0.00 0.00 0.00 0.00 0.00 0.00 0.00 0.00 0.02 0.02 0.01 0.01 0.01 0.02 0.02 0.09 0.18 0.20 0.15 0.17 0.16 0.11 0.09 0.07
0.00 0.00 0.00 0.00 0.00 0.00 0.00 0.01 0.02 0.02 0.01 0.00 0.00 0.00 0.00 0.00 0.00 0.00 0.00 0.00 0.00 0.00 0.00 0.00 0.00 0.00 0.00 0.00 0.00 0.00 0.00 0.00 0.00 0.00 0.01 0.01 0.01 0.01 0.01 0.04 0.07 0.13 0.16 0.25 0.34 0.28 0.20 0.20 0.18
0.00 0.00 0.00 0.00 0.00 0.00 0.00 0.00 0.01 0.02 0.01 0.01 0.01 0.00 0.00 0.00 0.00 0.00 0.00 0.00 0.00 0.00 0.00 0.00 0.00 0.00 0.00 0.00 0.00 0.00 0.00 0.00 0.00 0.00 0.00 0.00 0.01 0.02 0.06 0.12 0.13 0.17 0.15 0.19 0.18 0.20 0.11 0.07 0.06
0.00 0.00 0.00 0.00 0.00 0.00 0.00 0.00 0.00 0.01 0.02 0.01 0.01 0.01 0.01 0.00 0.00 0.00 0.00 0.00 0.00 0.00 0.00 0.00 0.00 0.00 0.00 0.00 0.00 0.00 0.00 0.00 0.00 0.00 0.00 0.00 0.01 0.04 0.11 0.14 0.16 0.10 0.11 0.12 0.11 0.09 0.10 0.09 0.07
0.00 0.00 0.00 0.00 0.00 0.00 0.00 0.00 0.00 0.00 0.01 0.01 0.01 0.02 0.01 0.01 0.00 0.00 0.00 0.00 0.00 0.00 0.00 0.00 0.00 0.00 0.01 0.01 0.00 0.00 0.00 0.00 0.00 0.00 0.00 0.00 0.01 0.08 0.13 0.16 0.18 0.12 0.12 0.16 0.18 0.14 0.21 0.14 0.09
0.00 0.00 0.00 0.00 0.00 0.00 0.00 0.00 0.00 0.00 0.00 0.01 0.01 0.01 0.02 0.01 0.01 0.01 0.00 0.00 0.00 0.00 0.00 0.00 0.00 0.00 0.01 0.01 0.01 0.01 0.00 0.00 0.00 0.00 0.01 0.02 0.05 0.14 0.15 0.16 0.17 0.19 0.17 0.23 0.24 0.22 0.21 0.14 0.10
0.00 0.00 0.00 0.00 0.00 0.00 0.00 0.00 0.00 0.00 0.00 0.00 0.01 0.01 0.01 0.01 0.02 0.01 0.01 0.01 0.01 0.01 0.01 0.01 0.01 0.01 0.03 0.04 0.04 0.04 0.03 0.02 0.02 0.01 0.01 0.04 0.09 0.18 0.23 0.19 0.19 0.24 0.25 0.29 0.32 0.29 0.23 0.21 0.13
0.00 0.00 0.00 0.00 0.00 0.00 0.00 0.00 0.00 0.00 0.00 0.00 0.01 0.03 0.05 0.06 0.06 0.06 0.06 0.07 0.07 0.05 0.04 0.04 0.04 0.04 0.09 0.14 0.17 0.18 0.17 0.12 0.08 0.06 0.06 0.11 0.19 0.27 0.37 0.29 0.26 0.21 0.27 0.28 0.19 0.28 0.28 0.26 0.18
0.00 0.00 0.00 0.00 0.00 0.00 0.00 0.00 0.00 0.00 0.01 0.01 0.03 0.06 0.10 0.15 0.24 0.24 0.19 0.19 0.18 0.15 0.16 0.15 0.14 0.16 0.30 0.46 0.47 0.41 0.37 0.29 0.24 0.19 0.20 0.27 0.36 0.41 0.48 0.39 0.32 0.24 0.34 0.35 0.25 0.28 0.27 0.22 0.17
0.00 0.00 0.00 0.00 0.00 0.00 0.00 0.00 0.00 0.01 0.02 0.03 0.05 0.13 0.23 0.28 0.40 0.51 0.50 0.41 0.34 0.31 0.33 0.38 0.48 0.57 0.77 0.75 0.65 0.64 0.66 0.61 0.56 0.47 0.42 0.41 0.40 0.42 0.50 0.42 0.44 0.37 0.35 0.38 0.30 0.34 0.34 0.29 0.26
0.00 0.00 0.00 0.00 0.00 0.00 0.00 0.00 0.01 0.02 0.04 0.06 0.07 0.09 0.20 0.37 0.52 0.65 0.67 0.59 0.58 0.74 0.88 0.97 1.03 1.24 1.29 1.14 1.10 1.12 1.10 1.01 1.00 0.86 0.68 0.52 0.46 0.47 0.47 0.55 0.45 0.42 0.42 0.46 0.49 0.44 0.32 0.26 0.31
0.00 0.00 0.00 0.00 0.00 0.00 0.00 0.00 0.01 0.06 0.10 0.14 0.17 0.19 0.23 0.28 0.33 0.41 0.45 0.49 0.57 0.72 0.85 1.06 1.33 1.57 1.65 1.61 1.58 1.51 1.46 1.33 1.21 0.98 0.80 0.65 0.53 0.50 0.54 0.59 0.55 0.48 0.45 0.48 0.59 0.49 0.41 0.38 0.40
0.00 0.00 0.00 0.00 0.00 0.00 0.00 0.00 0.00 0.03 0.06 0.11 0.17 0.22 0.27 0.34 0.36 0.38 0.40 0.43 0.48 0.53 0.71 1.03 1.33 1.55 1.67 1.71 1.62 1.60 1.57 1.47 1.33 1.05 0.81 0.68 0.60 0.61 0.65 0.63 0.59 0.57 0.55 0.54 0.49 0.40 0.55 0.53 0.48
0.00 0.00 0.00 0.00 0.00 0.00 0.00 0.00 0.00 0.00 0.02 0.04 0.11 0.18 0.28 0.36 0.42 0.48 0.56 0.64 0.68 0.77 0.93 1.09 1.27 1.45 1.55 1.55 1.51 1.46 1.38 1.28 1.17 0.94 0.76 0.67 0.63 0.62 0.59 0.57 0.70 0.80 0.72 0.64 0.57 0.53 0.57 0.55 0.53
0.00 0.00 0.00 0.00 0.00 0.00 0.00 0.00 0.00 0.00 0.01 0.04 0.13 0.20 0.31 0.42 0.53 0.64 0.71 0.78 0.83 0.96 1.11 1.24 1.33 1.49 1.56 1.43 1.29 1.25 1.23 1.15 1.02 0.87 0.74 0.61 0.55 0.53 0.52 0.59 0.72 0.77 0.73 0.68 0.58 0.53 0.58 0.57 0.55
0.00 0.02 0.05 0.03 0.01 0.00 0.00 0.00 0.02 0.03 0.02 0.08 0.17 0.23 0.29 0.37 0.45 0.54 0.68 0.87 0.95 0.95 0.98 1.15 1.40 1.62 1.60 1.40 1.19 1.09 1.04 1.00 0.94 0.84 0.75 0.66 0.59 0.53 0.52 0.53 0.55 0.59 0.59 0.61 0.59 0.54 0.58 0.59 0.56
0.04 0.06 0.16 0.13 0.04 0.02 0.01 0.02 0.08 0.08 0.13 0.16 0.21 0.25 0.26 0.24 0.22 0.22 0.25 0.34 0.39 0.40 0.40 0.47 0.59 0.74 0.78 0.74 0.68 0.66 0.65 0.66 0.70 0.70 0.68 0.66 0.62 0.56 0.49 0.44 0.40 0.41 0.41 0.44 0.51 0.56 0.58 0.57 0.56
0.14 0.15 0.12 0.24 0.21 0.17 0.04 0.03 0.10 0.12 0.19 0.24 0.26 0.23 0.20 0.18 0.15 0.16 0.18 0.20 0.23 0.26 0.31 0.39 0.45 0.48 0.47 0.41 0.35 0.34 0.33 0.36 0.42 0.46 0.47 0.49 0.50 0.47 0.43 0.41 0.39 0.35 0.33 0.34 0.40 0.46 0.48 0.49 0.49
0.08 0.14 0.28 0.44 0.42 0.29 0.12 0.10 0.23 0.33 0.33 0.37 0.38 0.34 0.27 0.21 0.20 0.21 0.22 0.26 0.33 0.42 0.50 0.54 0.52 0.45 0.35 0.29 0.26 0.22 0.21 0.21 0.22 0.23 0.23 0.24 0.27 0.30 0.29 0.26 0.22 0.19 0.18 0.19 0.22 0.25 0.28 0.31 0.33
0.10 0.15 0.30 0.42 0.44 0.41 0.32 0.27 0.23 0.31 0.43 0.57 0.59 0.48 0.35 0.28 0.25 0.25 0.24 0.27 0.32 0.41 0.46 0.50 0.48 0.42 0.34 0.28 0.22 0.17 0.14 0.11 0.09 0.09 0.08 0.08 0.08 0.08 0.09 0.09 0.08 0.06 0.06 0.06 0.07 0.09 0.12 0.13 0.15
0.07 0.14 0.27 0.43 0.48 0.48 0.44 0.34 0.16 0.18 0.29 0.40 0.42 0.35 0.27 0.24 0.23 0.22 0.21 0.22 0.25 0.30 0.35 0.37 0.35 0.33 0.28 0.21 0.16 0.12 0.08 0.05 0.03 0.02 0.01 0.01 0.01 0.01 0.01 0.01 0.01 0.01 0.01 0.01 0.01 0.02 0.03 0.04 0.06